QPF
0.01 0.01 0.01 0.01 0.01 0.01 0.01 0.01 0.01 0.02 0.01 0.01 0.01 0.01 0.00 0.00 0.00 0.01 0.01 0.01 0.01 0.02 0.01 0.02 0.02 0.01 0.02 0.01 0.01 0.01 0.01 0.01 0.02 0.01 0.00 0.00 0.00 0.01 0.01 0.00 0.00 0.00 0.01
0.01 0.01 0.01 0.02 0.02 0.01 0.01 0.01 0.01 0.02 0.01 0.01 0.01 0.01 0.00 0.00 0.00 0.01 0.01 0.01 0.01 0.01 0.02 0.02 0.01 0.01 0.01 0.00 0.00 0.01 0.00 0.01 0.01 0.00 0.00 0.00 0.00 0.00 0.00 0.01 0.00 0.00 0.00
0.01 0.01 0.01 0.01 0.01 0.01 0.01 0.01 0.01 0.01 0.02 0.01 0.01 0.01 0.00 0.00 0.00 0.00 0.00 0.01 0.01 0.01 0.01 0.02 0.01 0.01 0.01 0.00 0.00 0.00 0.00 0.00 0.01 0.00 0.00 0.00 0.00 0.00 0.00 0.00 0.00 0.00 0.00
0.01 0.01 0.02 0.01 0.01 0.01 0.01 0.01 0.01 0.01 0.02 0.02 0.01 0.01 0.01 0.00 0.00 0.00 0.00 0.01 0.01 0.01 0.01 0.01 0.01 0.01 0.01 0.01 0.01 0.00 0.00 0.00 0.00 0.00 0.00 0.00 0.00 0.00 0.00 0.00 0.00 0.00 0.00
0.01 0.01 0.02 0.02 0.02 0.02 0.01 0.01 0.01 0.01 0.02 0.02 0.02 0.01 0.01 0.00 0.01 0.01 0.01 0.01 0.01 0.01 0.01 0.01 0.00 0.00 0.00 0.01 0.00 0.00 0.00 0.00 0.00 0.00 0.01 0.00 0.00 0.00 0.00 0.00 0.00 0.00 0.00
0.01 0.02 0.03 0.04 0.04 0.03 0.02 0.01 0.01 0.01 0.01 0.02 0.02 0.02 0.01 0.00 0.01 0.01 0.01 0.01 0.01 0.01 0.01 0.01 0.01 0.01 0.01 0.01 0.01 0.01 0.01 0.01 0.01 0.01 0.01 0.01 0.01 0.01 0.00 0.00 0.00 0.00 0.00
0.01 0.02 0.03 0.05 0.05 0.03 0.02 0.02 0.02 0.01 0.01 0.02 0.02 0.02 0.01 0.01 0.01 0.01 0.01 0.01 0.01 0.01 0.01 0.01 0.01 0.01 0.01 0.01 0.00 0.00 0.01 0.01 0.01 0.01 0.01 0.01 0.01 0.00 0.00 0.00 0.00 0.00 0.00
0.02 0.02 0.03 0.04 0.06 0.05 0.03 0.02 0.01 0.01 0.01 0.01 0.03 0.02 0.02 0.02 0.01 0.01 0.01 0.01 0.02 0.01 0.01 0.01 0.01 0.01 0.00 0.00 0.00 0.00 0.00 0.00 0.00 0.01 0.01 0.01 0.01 0.00 0.00 0.00 0.00 0.00 0.00
0.02 0.02 0.02 0.02 0.04 0.04 0.04 0.03 0.02 0.01 0.01 0.01 0.01 0.02 0.03 0.02 0.01 0.01 0.01 0.01 0.01 0.01 0.01 0.01 0.01 0.00 0.00 0.00 0.00 0.00 0.00 0.00 0.01 0.01 0.01 0.01 0.01 0.01 0.01 0.00 0.00 0.00 0.00
0.02 0.02 0.02 0.02 0.02 0.03 0.04 0.03 0.02 0.02 0.02 0.02 0.01 0.01 0.01 0.02 0.01 0.01 0.01 0.01 0.01 0.01 0.01 0.01 0.01 0.01 0.01 0.01 0.01 0.01 0.01 0.01 0.01 0.01 0.01 0.01 0.01 0.01 0.01 0.01 0.01 0.01 0.01
0.04 0.03 0.02 0.02 0.02 0.02 0.03 0.04 0.04 0.03 0.03 0.03 0.02 0.01 0.01 0.02 0.02 0.01 0.01 0.01 0.02 0.02 0.01 0.01 0.01 0.01 0.01 0.01 0.01 0.00 0.01 0.01 0.01 0.01 0.01 0.01 0.01 0.01 0.01 0.01 0.01 0.02 0.01
0.04 0.03 0.03 0.03 0.03 0.02 0.03 0.04 0.04 0.03 0.03 0.03 0.02 0.02 0.01 0.02 0.02 0.02 0.02 0.02 0.02 0.03 0.03 0.02 0.01 0.01 0.01 0.00 0.00 0.00 0.01 0.01 0.01 0.01 0.01 0.01 0.02 0.02 0.02 0.02 0.01 0.01 0.01
0.03 0.02 0.02 0.03 0.03 0.03 0.02 0.04 0.05 0.05 0.03 0.03 0.02 0.02 0.02 0.02 0.02 0.02 0.01 0.01 0.01 0.01 0.02 0.02 0.02 0.00 0.00 0.00 0.00 0.00 0.00 0.00 0.01 0.01 0.01 0.01 0.02 0.02 0.01 0.01 0.01 0.01 0.01
0.03 0.02 0.02 0.03 0.03 0.02 0.02 0.02 0.03 0.05 0.04 0.03 0.03 0.03 0.02 0.01 0.02 0.02 0.02 0.02 0.02 0.01 0.02 0.02 0.02 0.01 0.00 0.00 0.00 0.00 0.01 0.01 0.02 0.01 0.01 0.01 0.01 0.01 0.01 0.00 0.00 0.00 0.00
0.04 0.04 0.03 0.02 0.02 0.02 0.01 0.01 0.01 0.02 0.03 0.03 0.03 0.02 0.02 0.02 0.01 0.01 0.02 0.01 0.02 0.02 0.02 0.01 0.01 0.01 0.00 0.00 0.00 0.01 0.01 0.02 0.02 0.01 0.02 0.02 0.01 0.01 0.00 0.00 0.00 0.00 0.00
0.04 0.04 0.03 0.02 0.02 0.01 0.01 0.01 0.01 0.01 0.01 0.02 0.03 0.03 0.02 0.02 0.01 0.01 0.02 0.01 0.02 0.02 0.01 0.01 0.01 0.01 0.01 0.01 0.01 0.01 0.01 0.02 0.02 0.02 0.02 0.02 0.01 0.01 0.01 0.01 0.00 0.00 0.00
0.07 0.04 0.02 0.02 0.01 0.01 0.01 0.01 0.01 0.01 0.01 0.01 0.02 0.03 0.03 0.02 0.02 0.02 0.02 0.02 0.03 0.02 0.01 0.01 0.01 0.01 0.01 0.01 0.01 0.01 0.01 0.02 0.02 0.02 0.02 0.01 0.01 0.01 0.01 0.01 0.01 0.01 0.00
0.06 0.05 0.02 0.01 0.02 0.01 0.01 0.01 0.01 0.01 0.01 0.01 0.01 0.02 0.03 0.02 0.02 0.02 0.03 0.02 0.02 0.02 0.01 0.01 0.01 0.01 0.01 0.01 0.01 0.01 0.01 0.01 0.02 0.02 0.01 0.01 0.01 0.01 0.01 0.01 0.01 0.01 0.01
0.03 0.03 0.02 0.01 0.01 0.01 0.01 0.01 0.01 0.01 0.01 0.01 0.02 0.02 0.03 0.03 0.03 0.03 0.03 0.01 0.01 0.01 0.01 0.01 0.01 0.01 0.01 0.01 0.01 0.01 0.01 0.01 0.01 0.02 0.02 0.01 0.01 0.01 0.01 0.01 0.01 0.01 0.01
0.02 0.02 0.02 0.02 0.01 0.01 0.01 0.01 0.01 0.01 0.01 0.01 0.02 0.02 0.03 0.03 0.03 0.03 0.02 0.01 0.01 0.01 0.01 0.01 0.01 0.00 0.01 0.01 0.01 0.01 0.01 0.01 0.01 0.01 0.01 0.01 0.01 0.01 0.01 0.01 0.01 0.01 0.01
0.01 0.02 0.02 0.02 0.02 0.02 0.02 0.01 0.01 0.02 0.02 0.01 0.02 0.02 0.03 0.03 0.02 0.02 0.02 0.01 0.01 0.01 0.01 0.01 0.01 0.01 0.01 0.01 0.01 0.01 0.01 0.01 0.01 0.01 0.01 0.01 0.01 0.01 0.01 0.01 0.01 0.01 0.01
0.01 0.01 0.02 0.02 0.02 0.02 0.02 0.01 0.01 0.02 0.02 0.01 0.01 0.02 0.03 0.03 0.03 0.02 0.02 0.01 0.01 0.00 0.00 0.00 0.00 0.00 0.00 0.01 0.01 0.01 0.01 0.01 0.01 0.01 0.01 0.02 0.02 0.01 0.01 0.01 0.01 0.01 0.01
0.01 0.01 0.02 0.02 0.02 0.02 0.02 0.01 0.01 0.01 0.02 0.02 0.02 0.02 0.02 0.03 0.02 0.02 0.02 0.02 0.01 0.01 0.00 0.00 0.00 0.00 0.00 0.01 0.01 0.01 0.01 0.01 0.01 0.01 0.02 0.02 0.02 0.02 0.02 0.02 0.02 0.02 0.03
0.01 0.02 0.02 0.02 0.02 0.02 0.02 0.01 0.01 0.01 0.01 0.01 0.01 0.02 0.02 0.03 0.02 0.02 0.01 0.01 0.01 0.01 0.01 0.01 0.01 0.01 0.01 0.01 0.01 0.01 0.01 0.01 0.01 0.01 0.01 0.01 0.01 0.02 0.02 0.02 0.03 0.03 0.04
0.01 0.01 0.01 0.01 0.01 0.01 0.01 0.01 0.01 0.01 0.01 0.01 0.02 0.02 0.02 0.03 0.03 0.02 0.02 0.01 0.01 0.01 0.01 0.01 0.01 0.01 0.02 0.02 0.02 0.01 0.02 0.01 0.01 0.01 0.01 0.01 0.01 0.01 0.01 0.02 0.02 0.02 0.02
0.01 0.01 0.01 0.01 0.01 0.01 0.01 0.01 0.01 0.01 0.01 0.01 0.02 0.02 0.02 0.02 0.02 0.02 0.02 0.01 0.01 0.01 0.01 0.01 0.01 0.01 0.02 0.02 0.02 0.02 0.02 0.02 0.01 0.01 0.01 0.01 0.01 0.01 0.01 0.01 0.01 0.01 0.01
MSLP
1017.87 1017.97 1018.03 1018.02 1017.96 1017.83 1017.67 1017.50 1017.36 1017.28 1017.27 1017.34 1017.48 1017.65 1017.82 1017.96 1018.05 1018.08 1018.04 1017.95 1017.83 1017.72 1017.65 1017.63 1017.67 1017.77 1017.92 1018.09 1018.28 1018.46 1018.62 1018.76 1018.89 1019.00 1019.12 1019.24 1019.35 1019.46 1019.55 1019.61 1019.64 1019.62 1019.56
1018.19 1018.31 1018.37 1018.37 1018.30 1018.16 1018.00 1017.83 1017.69 1017.60 1017.58 1017.64 1017.75 1017.89 1018.02 1018.13 1018.18 1018.17 1018.10 1017.99 1017.86 1017.75 1017.66 1017.64 1017.67 1017.75 1017.88 1018.04 1018.20 1018.35 1018.49 1018.61 1018.72 1018.81 1018.90 1018.99 1019.07 1019.13 1019.18 1019.19 1019.16 1019.08 1018.98
1018.47 1018.62 1018.72 1018.73 1018.68 1018.56 1018.41 1018.25 1018.12 1018.04 1018.02 1018.06 1018.15 1018.25 1018.34 1018.40 1018.42 1018.37 1018.28 1018.15 1018.00 1017.88 1017.80 1017.76 1017.78 1017.85 1017.95 1018.08 1018.21 1018.33 1018.43 1018.52 1018.59 1018.65 1018.71 1018.76 1018.79 1018.81 1018.80 1018.75 1018.66 1018.52 1018.35
1018.67 1018.87 1019.00 1019.05 1019.03 1018.95 1018.83 1018.71 1018.61 1018.56 1018.54 1018.58 1018.64 1018.71 1018.77 1018.79 1018.76 1018.68 1018.56 1018.41 1018.27 1018.14 1018.05 1018.01 1018.01 1018.06 1018.13 1018.22 1018.30 1018.38 1018.43 1018.47 1018.50 1018.52 1018.53 1018.54 1018.53 1018.51 1018.44 1018.34 1018.19 1017.98 1017.75
1018.79 1019.02 1019.19 1019.28 1019.30 1019.27 1019.21 1019.14 1019.09 1019.07 1019.08 1019.12 1019.17 1019.22 1019.25 1019.23 1019.17 1019.07 1018.93 1018.78 1018.63 1018.51 1018.42 1018.37 1018.36 1018.38 1018.42 1018.46 1018.48 1018.50 1018.49 1018.47 1018.44 1018.41 1018.37 1018.34 1018.29 1018.22 1018.12 1017.97 1017.76 1017.50 1017.20
1018.79 1019.04 1019.24 1019.36 1019.44 1019.46 1019.47 1019.47 1019.48 1019.51 1019.56 1019.62 1019.68 1019.72 1019.73 1019.69 1019.61 1019.50 1019.36 1019.21 1019.07 1018.96 1018.88 1018.83 1018.80 1018.80 1018.79 1018.78 1018.74 1018.68 1018.60 1018.51 1018.41 1018.32 1018.23 1018.15 1018.07 1017.97 1017.83 1017.64 1017.40 1017.10 1016.74
1018.68 1018.94 1019.14 1019.30 1019.42 1019.51 1019.58 1019.66 1019.74 1019.84 1019.94 1020.03 1020.12 1020.16 1020.17 1020.13 1020.05 1019.94 1019.80 1019.67 1019.56 1019.46 1019.39 1019.35 1019.32 1019.28 1019.24 1019.17 1019.07 1018.93 1018.77 1018.60 1018.43 1018.27 1018.13 1018.00 1017.88 1017.74 1017.58 1017.37 1017.10 1016.77 1016.37
1018.50 1018.74 1018.94 1019.12 1019.28 1019.43 1019.57 1019.72 1019.89 1020.05 1020.21 1020.36 1020.47 1020.54 1020.56 1020.53 1020.47 1020.37 1020.26 1020.16 1020.07 1020.00 1019.95 1019.92 1019.88 1019.84 1019.76 1019.64 1019.47 1019.27 1019.03 1018.78 1018.54 1018.30 1018.10 1017.91 1017.74 1017.57 1017.39 1017.16 1016.87 1016.52 1016.10
1018.29 1018.50 1018.70 1018.90 1019.10 1019.30 1019.52 1019.75 1019.99 1020.22 1020.45 1020.64 1020.80 1020.90 1020.94 1020.94 1020.89 1020.82 1020.74 1020.67 1020.61 1020.57 1020.55 1020.54 1020.51 1020.45 1020.34 1020.19 1019.97 1019.71 1019.40 1019.08 1018.76 1018.46 1018.18 1017.94 1017.72 1017.51 1017.28 1017.03 1016.73 1016.36 1015.93
1018.11 1018.30 1018.50 1018.72 1018.96 1019.22 1019.51 1019.82 1020.14 1020.45 1020.73 1020.98 1021.17 1021.31 1021.38 1021.40 1021.38 1021.33 1021.28 1021.24 1021.21 1021.20 1021.21 1021.21 1021.19 1021.12 1021.01 1020.83 1020.58 1020.27 1019.92 1019.54 1019.16 1018.79 1018.44 1018.13 1017.85 1017.59 1017.32 1017.04 1016.71 1016.33 1015.88
1018.01 1018.20 1018.42 1018.67 1018.96 1019.30 1019.66 1020.04 1020.44 1020.81 1021.16 1021.45 1021.68 1021.85 1021.94 1021.98 1021.98 1021.96 1021.93 1021.91 1021.90 1021.91 1021.93 1021.95 1021.93 1021.88 1021.76 1021.57 1021.31 1020.98 1020.60 1020.18 1019.75 1019.32 1018.92 1018.54 1018.20 1017.87 1017.55 1017.22 1016.85 1016.44 1015.97
1018.03 1018.24 1018.49 1018.80 1019.17 1019.58 1020.02 1020.49 1020.95 1021.39 1021.79 1022.12 1022.38 1022.57 1022.68 1022.73 1022.74 1022.73 1022.71 1022.69 1022.70 1022.71 1022.74 1022.76 1022.75 1022.70 1022.59 1022.41 1022.16 1021.83 1021.44 1021.01 1020.55 1020.08 1019.63 1019.20 1018.78 1018.39 1018.00 1017.61 1017.19 1016.73 1016.22
1018.17 1018.43 1018.75 1019.14 1019.59 1020.09 1020.62 1021.16 1021.69 1022.18 1022.62 1022.99 1023.27 1023.47 1023.60 1023.65 1023.67 1023.65 1023.62 1023.60 1023.60 1023.60 1023.62 1023.63 1023.63 1023.59 1023.49 1023.32 1023.09 1022.78 1022.41 1021.98 1021.52 1021.04 1020.55 1020.07 1019.59 1019.13 1018.66 1018.20 1017.71 1017.19 1016.64
1018.44 1018.77 1019.18 1019.67 1020.21 1020.80 1021.41 1022.02 1022.61 1023.15 1023.62 1024.01 1024.31 1024.51 1024.64 1024.70 1024.70 1024.68 1024.63 1024.60 1024.57 1024.55 1024.55 1024.55 1024.54 1024.50 1024.41 1024.27 1024.07 1023.79 1023.45 1023.05 1022.61 1022.12 1021.62 1021.09 1020.57 1020.04 1019.50 1018.95 1018.39 1017.80 1017.18
1018.81 1019.23 1019.74 1020.32 1020.95 1021.63 1022.31 1022.98 1023.61 1024.19 1024.68 1025.08 1025.39 1025.60 1025.72 1025.78 1025.78 1025.74 1025.68 1025.61 1025.56 1025.52 1025.49 1025.46 1025.44 1025.39 1025.32 1025.20 1025.02 1024.79 1024.49 1024.13 1023.72 1023.24 1022.73 1022.19 1021.61 1021.02 1020.41 1019.79 1019.14 1018.47 1017.78
1019.27 1019.78 1020.37 1021.04 1021.75 1022.49 1023.22 1023.93 1024.59 1025.18 1025.69 1026.10 1026.40 1026.62 1026.74 1026.80 1026.79 1026.74 1026.67 1026.59 1026.51 1026.44 1026.38 1026.33 1026.28 1026.23 1026.16 1026.06 1025.91 1025.71 1025.45 1025.13 1024.74 1024.29 1023.78 1023.22 1022.61 1021.97 1021.29 1020.59 1019.87 1019.12 1018.35
1019.79 1020.36 1021.03 1021.75 1022.52 1023.29 1024.06 1024.78 1025.45 1026.04 1026.54 1026.95 1027.26 1027.48 1027.61 1027.67 1027.67 1027.63 1027.55 1027.46 1027.37 1027.28 1027.19 1027.12 1027.05 1026.98 1026.91 1026.81 1026.68 1026.51 1026.28 1025.98 1025.61 1025.18 1024.67 1024.09 1023.45 1022.76 1022.03 1021.26 1020.46 1019.64 1018.80
1020.35 1020.97 1021.67 1022.42 1023.21 1023.99 1024.75 1025.46 1026.12 1026.69 1027.18 1027.59 1027.90 1028.12 1028.27 1028.35 1028.37 1028.35 1028.28 1028.20 1028.10 1028.00 1027.91 1027.81 1027.73 1027.65 1027.56 1027.45 1027.32 1027.15 1026.93 1026.64 1026.28 1025.84 1025.32 1024.72 1024.05 1023.31 1022.52 1021.69 1020.83 1019.94 1019.03
1020.94 1021.58 1022.28 1023.03 1023.80 1024.56 1025.29 1025.97 1026.59 1027.14 1027.61 1028.00 1028.32 1028.56 1028.73 1028.83 1028.88 1028.89 1028.86 1028.80 1028.72 1028.62 1028.52 1028.42 1028.32 1028.22 1028.12 1027.99 1027.84 1027.66 1027.41 1027.11 1026.73 1026.27 1025.72 1025.08 1024.37 1023.59 1022.75 1021.86 1020.94 1019.99 1019.03
1021.53 1022.16 1022.85 1023.56 1024.29 1025.00 1025.69 1026.32 1026.90 1027.42 1027.87 1028.25 1028.57 1028.82 1029.02 1029.16 1029.25 1029.30 1029.31 1029.28 1029.22 1029.15 1029.06 1028.96 1028.85 1028.73 1028.60 1028.44 1028.26 1028.04 1027.76 1027.41 1026.99 1026.48 1025.88 1025.20 1024.44 1023.61 1022.72 1021.78 1020.80 1019.80 1018.79
1022.12 1022.72 1023.36 1024.03 1024.70 1025.36 1025.99 1026.57 1027.11 1027.60 1028.02 1028.40 1028.72 1029.00 1029.22 1029.40 1029.53 1029.62 1029.67 1029.68 1029.66 1029.61 1029.53 1029.44 1029.32 1029.19 1029.03 1028.84 1028.61 1028.33 1027.99 1027.58 1027.09 1026.53 1025.87 1025.13 1024.31 1023.43 1022.48 1021.50 1020.48 1019.44 1018.39
1022.65 1023.22 1023.82 1024.43 1025.05 1025.65 1026.23 1026.77 1027.27 1027.73 1028.15 1028.52 1028.85 1029.14 1029.39 1029.60 1029.76 1029.89 1029.98 1030.03 1030.04 1030.01 1029.96 1029.87 1029.75 1029.59 1029.41 1029.18 1028.89 1028.56 1028.15 1027.67 1027.11 1026.47 1025.74 1024.94 1024.06 1023.13 1022.14 1021.12 1020.07 1019.00 1017.92
1023.12 1023.65 1024.21 1024.78 1025.35 1025.91 1026.45 1026.96 1027.44 1027.88 1028.29 1028.67 1029.01 1029.31 1029.58 1029.81 1030.00 1030.16 1030.27 1030.34 1030.37 1030.37 1030.32 1030.24 1030.11 1029.94 1029.73 1029.46 1029.13 1028.73 1028.26 1027.71 1027.08 1026.36 1025.57 1024.71 1023.78 1022.80 1021.78 1020.73 1019.65 1018.57 1017.48
1023.48 1024.00 1024.53 1025.08 1025.61 1026.15 1026.66 1027.16 1027.62 1028.07 1028.48 1028.86 1029.20 1029.52 1029.80 1030.04 1030.24 1030.41 1030.53 1030.61 1030.66 1030.65 1030.61 1030.53 1030.39 1030.21 1029.97 1029.66 1029.29 1028.84 1028.31 1027.70 1027.01 1026.24 1025.39 1024.48 1023.52 1022.51 1021.47 1020.41 1019.33 1018.24 1017.16
1023.74 1024.26 1024.78 1025.30 1025.83 1026.35 1026.86 1027.35 1027.82 1028.27 1028.69 1029.07 1029.43 1029.75 1030.03 1030.27 1030.47 1030.63 1030.75 1030.82 1030.86 1030.85 1030.80 1030.70 1030.56 1030.35 1030.09 1029.76 1029.35 1028.86 1028.29 1027.64 1026.91 1026.10 1025.22 1024.29 1023.31 1022.29 1021.25 1020.19 1019.12 1018.05 1016.98
1023.90 1024.42 1024.94 1025.46 1025.99 1026.51 1027.01 1027.51 1027.99 1028.45 1028.88 1029.27 1029.63 1029.95 1030.22 1030.45 1030.64 1030.78 1030.88 1030.93 1030.95 1030.92 1030.86 1030.74 1030.58 1030.36 1030.08 1029.72 1029.29 1028.78 1028.19 1027.51 1026.76 1025.94 1025.05 1024.12 1023.14 1022.14 1021.12 1020.08 1019.04 1017.99 1016.95
Thickness
5701 5700 5699 5699 5698 5697 5695 5693 5693 5692 5691 5689 5688 5688 5686 5685 5683 5680 5679 5678 5678 5678 5677 5676 5673 5673 5671 5669 5668 5667 5666 5665 5659 5655 5653 5650 5647 5646 5642 5640 5639 5637 5634
5698 5697 5697 5697 5695 5695 5693 5692 5692 5692 5690 5689 5688 5687 5686 5684 5683 5681 5678 5677 5677 5676 5676 5674 5673 5671 5669 5668 5666 5666 5664 5663 5659 5654 5651 5648 5646 5643 5640 5638 5637 5635 5632
5694 5694 5694 5694 5694 5693 5692 5691 5691 5690 5689 5688 5686 5685 5685 5684 5682 5680 5679 5677 5676 5675 5674 5673 5673 5671 5667 5666 5664 5664 5662 5661 5658 5654 5650 5646 5643 5641 5638 5636 5635 5633 5631
5690 5690 5691 5691 5691 5691 5690 5689 5689 5688 5687 5686 5685 5683 5683 5682 5681 5680 5678 5677 5676 5674 5673 5672 5671 5670 5668 5666 5663 5662 5660 5658 5655 5653 5648 5644 5641 5639 5637 5635 5633 5631 5629
5686 5686 5687 5688 5688 5687 5686 5685 5685 5685 5685 5683 5682 5681 5681 5680 5679 5678 5676 5675 5674 5672 5671 5670 5669 5666 5664 5663 5662 5660 5658 5656 5653 5650 5646 5643 5640 5637 5636 5635 5632 5630 5627
5682 5683 5683 5683 5683 5682 5682 5681 5681 5681 5682 5681 5680 5678 5677 5676 5673 5671 5672 5672 5672 5670 5668 5667 5665 5662 5658 5656 5655 5654 5654 5654 5653 5649 5646 5644 5642 5639 5636 5633 5631 5629 5625
5678 5679 5679 5678 5678 5678 5678 5677 5676 5677 5677 5677 5676 5675 5674 5672 5668 5667 5665 5668 5669 5668 5667 5665 5663 5660 5656 5656 5652 5649 5648 5647 5647 5649 5647 5645 5642 5639 5635 5632 5630 5627 5624
5675 5675 5675 5674 5674 5674 5673 5673 5673 5674 5674 5673 5673 5672 5670 5668 5664 5663 5662 5664 5665 5664 5663 5662 5660 5658 5655 5654 5652 5650 5649 5646 5644 5643 5644 5643 5640 5636 5633 5631 5627 5624 5621
5672 5672 5671 5671 5669 5669 5669 5670 5670 5670 5670 5670 5669 5668 5667 5665 5661 5659 5658 5661 5661 5660 5659 5658 5657 5655 5650 5648 5649 5647 5646 5643 5639 5637 5636 5635 5632 5630 5628 5626 5623 5620 5618
5668 5668 5668 5667 5666 5666 5666 5667 5667 5666 5667 5666 5666 5665 5665 5663 5658 5656 5655 5658 5657 5656 5655 5653 5649 5649 5645 5643 5645 5645 5642 5641 5637 5633 5631 5629 5627 5624 5621 5621 5620 5617 5616
5664 5664 5663 5663 5663 5663 5662 5662 5662 5662 5663 5663 5662 5661 5661 5660 5656 5653 5652 5655 5654 5653 5651 5649 5647 5642 5640 5638 5639 5640 5639 5637 5635 5632 5629 5626 5624 5621 5618 5616 5614 5613 5611
5657 5657 5657 5657 5657 5658 5657 5657 5657 5657 5657 5657 5657 5657 5657 5655 5653 5650 5648 5648 5649 5649 5647 5646 5643 5638 5635 5633 5633 5632 5630 5629 5629 5627 5625 5622 5620 5617 5614 5611 5609 5606 5604
5651 5652 5651 5651 5651 5652 5652 5652 5652 5652 5653 5654 5653 5653 5652 5652 5650 5646 5644 5643 5642 5643 5643 5640 5637 5633 5630 5628 5626 5625 5624 5624 5624 5622 5620 5617 5615 5612 5608 5605 5602 5600 5597
5646 5646 5646 5646 5646 5646 5646 5648 5648 5647 5648 5649 5650 5649 5648 5647 5646 5644 5642 5639 5636 5636 5635 5632 5629 5627 5626 5624 5622 5620 5620 5620 5618 5617 5615 5612 5608 5605 5602 5599 5597 5594 5592
5641 5641 5641 5641 5641 5641 5641 5642 5644 5645 5646 5646 5646 5647 5645 5644 5644 5642 5641 5639 5636 5635 5632 5628 5626 5624 5623 5621 5620 5618 5616 5614 5612 5611 5608 5605 5602 5599 5597 5594 5592 5590 5588
5636 5636 5635 5635 5636 5635 5635 5635 5635 5637 5637 5638 5639 5641 5642 5641 5639 5636 5634 5633 5630 5627 5626 5625 5624 5623 5621 5619 5617 5615 5613 5611 5608 5606 5603 5600 5597 5595 5591 5588 5586 5584 5582
5630 5631 5630 5630 5630 5630 5630 5630 5631 5630 5629 5631 5632 5632 5633 5633 5632 5630 5628 5625 5623 5621 5622 5622 5622 5620 5619 5617 5614 5612 5610 5607 5604 5601 5598 5595 5593 5590 5586 5583 5580 5577 5575
5624 5624 5624 5624 5624 5625 5626 5627 5627 5627 5627 5628 5626 5626 5626 5626 5625 5624 5621 5619 5617 5616 5619 5620 5618 5617 5616 5614 5611 5609 5606 5603 5599 5596 5593 5590 5587 5584 5581 5578 5575 5571 5568
5617 5618 5618 5618 5619 5619 5620 5621 5622 5622 5623 5623 5623 5621 5619 5619 5617 5616 5615 5618 5618 5616 5616 5616 5616 5614 5612 5610 5608 5605 5602 5598 5595 5591 5588 5585 5582 5579 5576 5573 5569 5565 5562
5610 5610 5610 5612 5613 5613 5614 5615 5616 5616 5617 5617 5617 5617 5616 5613 5614 5613 5612 5615 5615 5614 5613 5612 5611 5610 5608 5605 5602 5599 5597 5593 5590 5586 5583 5580 5577 5574 5571 5567 5564 5561 5557
5603 5603 5602 5604 5606 5607 5607 5608 5609 5610 5611 5612 5613 5612 5610 5611 5612 5612 5610 5610 5611 5610 5609 5607 5606 5604 5602 5600 5597 5594 5591 5589 5585 5582 5579 5575 5572 5568 5565 5562 5558 5555 5551
5595 5596 5596 5597 5597 5598 5599 5600 5601 5603 5604 5605 5606 5604 5602 5604 5606 5607 5606 5606 5605 5605 5604 5602 5601 5599 5597 5595 5592 5589 5587 5584 5581 5577 5574 5570 5566 5563 5560 5556 5553 5549 5545
5587 5587 5588 5590 5590 5589 5590 5592 5593 5594 5595 5597 5598 5598 5597 5597 5599 5600 5600 5600 5599 5598 5597 5596 5595 5593 5592 5589 5587 5585 5583 5580 5577 5573 5569 5565 5561 5558 5554 5551 5547 5543 5539
5579 5580 5581 5582 5583 5583 5583 5584 5585 5586 5587 5588 5590 5591 5591 5591 5592 5593 5594 5593 5592 5591 5590 5590 5589 5588 5586 5583 5581 5579 5577 5574 5571 5567 5563 5560 5556 5552 5549 5545 5541 5537 5533
5571 5572 5572 5573 5574 5575 5576 5576 5577 5577 5578 5579 5581 5582 5583 5584 5585 5585 5586 5586 5585 5585 5584 5583 5582 5580 5579 5576 5574 5572 5570 5567 5564 5560 5557 5553 5550 5546 5542 5538 5534 5530 5527
5563 5564 5565 5565 5566 5567 5568 5568 5569 5569 5570 5571 5573 5574 5575 5576 5577 5577 5577 5578 5577 5577 5576 5575 5575 5573 5572 5570 5567 5565 5562 5559 5556 5552 5549 5546 5543 5539 5535 5531 5527 5524 5519